Time,TemperatureF,DewpointF,PressureIn,WindDirection,WindDirectionDegrees,WindSpeedMPH,WindSpeedGustMPH,Humidity,HourlyPrecipIn,Conditions,Clouds,dailyrainin,SolarRadiationWatts/m^2,SoftwareType,DateUTC
2013-06-07 00:00:00,56.7,55.6,28.61,NNE,19,0.0,0.0,96,0.00,FEW,,0.00,0.0,WeatherDisplay:10.37,2013-06-07 05:00:00,
2013-06-07 00:10:00,56.4,55.0,28.61,NNE,19,0.0,0.0,95,0.00,FEW,,0.00,0.0,WeatherDisplay:10.37,2013-06-07 05:10:00,
2013-06-07 00:20:00,56.2,55.1,28.61,NNE,19,0.0,0.0,96,0.00,FEW,,0.00,0.0,WeatherDisplay:10.37,2013-06-07 05:20:00,
2013-06-07 00:30:00,56.0,54.9,28.61,NNE,19,0.0,0.0,96,0.00,FEW,,0.00,0.0,WeatherDisplay:10.37,2013-06-07 05:30:00,
2013-06-07 00:40:00,55.5,54.1,28.61,NNE,19,0.0,0.0,95,0.00,FEW,,0.00,0.0,WeatherDisplay:10.37,2013-06-07 05:40:00,
2013-06-07 00:50:00,55.2,54.1,28.61,NNE,19,0.0,0.0,96,0.00,FEW,,0.00,0.0,WeatherDisplay:10.37,2013-06-07 05:50:00,
2013-06-07 01:00:00,55.1,54.0,28.61,NNE,19,0.0,0.0,96,0.00,FEW,,0.00,0.0,WeatherDisplay:10.37,2013-06-07 06:00:00,
2013-06-07 01:10:00,54.9,53.8,28.61,NNE,19,0.0,0.0,96,0.00,FEW,,0.00,0.0,WeatherDisplay:10.37,2013-06-07 06:10:00,
2013-06-07 01:20:00,54.6,53.5,28.61,NNE,19,0.0,0.0,96,0.00,FEW,,0.00,0.0,WeatherDisplay:10.37,2013-06-07 06:20:00,
2013-06-07 01:30:00,54.4,53.3,28.61,NNE,19,0.0,0.0,96,0.00,FEW,,0.00,0.0,WeatherDisplay:10.37,2013-06-07 06:30:00,
2013-06-07 01:40:00,54.2,53.1,28.61,NNE,19,0.0,0.0,96,0.00,FEW,,0.00,0.0,WeatherDisplay:10.37,2013-06-07 06:40:00,
2013-06-07 01:50:00,54.0,52.9,28.60,NNE,19,0.0,0.0,96,0.00,FEW,,0.00,0.0,WeatherDisplay:10.37,2013-06-07 06:50:00,
2013-06-07 02:00:00,53.9,53.1,28.60,NNE,19,0.0,0.0,97,0.00,FEW,,0.00,0.0,WeatherDisplay:10.37,2013-06-07 07:00:00,
2013-06-07 02:10:00,53.9,53.1,28.60,NNE,19,0.0,0.0,97,0.00,FEW,,0.00,0.0,WeatherDisplay:10.37,2013-06-07 07:10:00,
2013-06-07 02:20:00,53.6,52.8,28.60,NNE,19,0.0,0.0,97,0.00,FEW,,0.00,0.0,WeatherDisplay:10.37,2013-06-07 07:20:00,
2013-06-07 02:30:00,53.5,52.7,28.60,NNE,19,0.0,0.0,97,0.00,FEW,,0.00,0.0,WeatherDisplay:10.37,2013-06-07 07:30:00,
2013-06-07 02:40:00,53.7,52.9,28.60,NNE,19,0.0,0.0,97,0.00,FEW,,0.00,0.0,WeatherDisplay:10.37,2013-06-07 07:40:00,
2013-06-07 02:50:00,53.6,52.8,28.60,NNE,19,0.0,0.0,97,0.00,FEW,,0.00,0.0,WeatherDisplay:10.37,2013-06-07 07:50:00,
2013-06-07 03:00:00,53.7,52.9,28.60,NNE,19,0.0,0.0,97,0.00,FEW,,0.00,0.0,WeatherDisplay:10.37,2013-06-07 08:00:00,
2013-06-07 03:10:00,53.7,52.9,28.60,NNE,19,0.0,0.0,97,0.00,FEW,,0.00,0.0,WeatherDisplay:10.37,2013-06-07 08:10:00,
2013-06-07 03:20:00,54.0,53.4,28.60,NNE,19,0.0,1.0,98,0.00,FEW,,0.00,0.0,WeatherDisplay:10.37,2013-06-07 08:20:00,
2013-06-07 03:30:00,54.2,53.7,28.60,NNE,19,0.0,1.0,98,0.00,FEW,,0.00,0.0,WeatherDisplay:10.37,2013-06-07 08:30:00,
2013-06-07 03:40:00,54.3,53.7,28.60,NNE,19,0.0,1.0,98,0.00,FEW,,0.00,0.0,WeatherDisplay:10.37,2013-06-07 08:40:00,
2013-06-07 03:50:00,54.3,53.8,28.60,NNE,19,0.0,1.0,98,0.00,FEW,,0.00,0.0,WeatherDisplay:10.37,2013-06-07 08:50:00,
2013-06-07 04:00:00,54.2,53.7,28.60,NNE,19,0.0,1.0,98,0.00,FEW,,0.00,0.0,WeatherDisplay:10.37,2013-06-07 09:00:00,
2013-06-07 04:10:00,54.3,53.7,28.60,NNE,19,0.0,2.0,98,0.00,FEW,,0.00,0.0,WeatherDisplay:10.37,2013-06-07 09:10:00,
2013-06-07 04:20:00,54.3,53.7,28.60,NNE,19,0.0,0.0,98,0.00,FEW,,0.00,0.0,WeatherDisplay:10.37,2013-06-07 09:20:00,
2013-06-07 04:30:00,54.1,53.5,28.60,NNE,19,0.0,0.0,98,0.00,FEW,,0.00,0.0,WeatherDisplay:10.37,2013-06-07 09:30:00,
2013-06-07 04:40:00,53.9,53.1,28.61,NNE,19,0.0,0.0,97,0.00,FEW,,0.00,0.0,WeatherDisplay:10.37,2013-06-07 09:40:00,
2013-06-07 04:50:00,53.9,53.0,28.61,NNE,19,0.0,0.0,97,0.00,FEW,,0.00,0.0,WeatherDisplay:10.37,2013-06-07 09:50:00,
2013-06-07 05:00:00,53.7,52.8,28.61,NNE,19,0.0,0.0,97,0.00,FEW,,0.00,0.0,WeatherDisplay:10.37,2013-06-07 10:00:00,
2013-06-07 05:10:00,53.4,52.6,28.61,NNE,19,0.0,0.0,97,0.00,FEW,,0.00,0.0,WeatherDisplay:10.37,2013-06-07 10:10:00,
2013-06-07 05:20:00,53.0,52.2,28.61,NNE,19,0.0,0.0,97,0.00,FEW,,0.00,0.0,WeatherDisplay:10.37,2013-06-07 10:20:00,
2013-06-07 05:30:00,52.7,51.8,28.61,NNE,19,0.0,0.0,97,0.00,FEW,,0.00,0.0,WeatherDisplay:10.37,2013-06-07 10:30:00,
2013-06-07 05:40:00,52.4,51.6,28.61,NNE,19,0.0,0.0,97,0.00,FEW,,0.00,0.0,WeatherDisplay:10.37,2013-06-07 10:40:00,
2013-06-07 05:50:00,52.3,51.5,28.62,NNE,19,0.0,0.0,97,0.00,FEW,,0.00,0.0,WeatherDisplay:10.37,2013-06-07 10:50:00,
2013-06-07 06:00:00,52.2,51.4,28.62,NNE,19,0.0,0.0,97,0.00,FEW,,0.00,0.0,WeatherDisplay:10.37,2013-06-07 11:00:00,
2013-06-07 06:10:00,52.1,51.3,28.62,NNE,19,0.0,0.0,97,0.00,FEW,,0.00,0.0,WeatherDisplay:10.37,2013-06-07 11:10:00,
2013-06-07 06:20:00,51.9,51.1,28.62,NNE,19,0.0,0.0,97,0.00,FEW,,0.00,0.0,WeatherDisplay:10.37,2013-06-07 11:20:00,
2013-06-07 06:30:00,51.8,51.0,28.62,NNE,19,0.0,0.0,97,0.00,FEW,,0.00,0.0,WeatherDisplay:10.37,2013-06-07 11:30:00,
2013-06-07 06:40:00,52.2,51.7,28.63,NNE,19,0.0,0.0,98,0.00,FEW,,0.00,0.0,WeatherDisplay:10.37,2013-06-07 11:40:00,
2013-06-07 06:50:00,52.7,52.2,28.63,NNE,19,0.0,0.0,98,0.00,FEW,,0.00,0.0,WeatherDisplay:10.37,2013-06-07 11:50:00,
2013-06-07 07:00:00,53.3,52.7,28.63,NNE,19,0.0,0.0,98,0.00,FEW,,0.00,0.0,WeatherDisplay:10.37,2013-06-07 12:00:00,
2013-06-07 07:10:00,54.3,54.0,28.63,NNE,19,0.0,0.0,99,0.00,FEW,,0.00,0.0,WeatherDisplay:10.37,2013-06-07 12:10:00,
2013-06-07 07:20:00,55.7,55.5,28.63,NNE,19,1.0,4.0,99,0.00,FEW,,0.00,0.0,WeatherDisplay:10.37,2013-06-07 12:20:00,
2013-06-07 07:30:00,56.7,56.4,28.63,NNE,19,1.0,4.0,99,0.00,FEW,,0.00,0.0,WeatherDisplay:10.37,2013-06-07 12:30:00,
2013-06-07 07:40:00,57.9,57.0,28.63,NNE,19,2.0,5.0,97,0.00,FEW,,0.00,0.0,WeatherDisplay:10.37,2013-06-07 12:40:00,
2013-06-07 07:50:00,59.0,56.9,28.64,NNE,19,2.0,5.0,93,0.00,FEW,,0.00,0.0,WeatherDisplay:10.37,2013-06-07 12:50:00,
2013-06-07 08:00:00,60.2,57.6,28.64,NE,39,1.0,7.0,91,0.00,FEW,,0.00,0.0,WeatherDisplay:10.37,2013-06-07 13:00:00,
2013-06-07 08:10:00,61.4,57.9,28.64,NE,50,2.0,5.0,88,0.00,FEW,,0.00,0.0,WeatherDisplay:10.37,2013-06-07 13:10:00,
2013-06-07 08:20:00,62.3,57.4,28.64,NE,49,5.0,9.0,84,0.00,FEW,,0.00,0.0,WeatherDisplay:10.37,2013-06-07 13:20:00,
2013-06-07 08:30:00,62.8,57.9,28.64,NE,42,2.0,7.0,84,0.00,FEW,,0.00,0.0,WeatherDisplay:10.37,2013-06-07 13:30:00,
2013-06-07 08:40:00,63.6,58.0,28.64,NE,51,3.0,7.0,82,0.00,FEW,,0.00,0.0,WeatherDisplay:10.37,2013-06-07 13:40:00,
2013-06-07 08:50:00,64.2,58.2,28.65,NNE,33,2.0,6.0,81,0.00,FEW,,0.00,0.0,WeatherDisplay:10.37,2013-06-07 13:50:00,
2013-06-07 09:00:00,64.6,57.9,28.65,NE,49,1.0,7.0,79,0.00,FEW,,0.00,0.0,WeatherDisplay:10.37,2013-06-07 14:00:00,
2013-06-07 09:10:00,65.2,58.2,28.65,NE,37,2.0,6.0,78,0.00,FEW,,0.00,0.0,WeatherDisplay:10.37,2013-06-07 14:10:00,
2013-06-07 09:20:00,65.8,58.1,28.65,NE,50,3.0,6.0,76,0.00,FEW,,0.00,0.0,WeatherDisplay:10.37,2013-06-07 14:20:00,
2013-06-07 09:30:00,66.5,59.1,28.65,NE,36,1.0,7.0,77,0.00,FEW,,0.00,0.0,WeatherDisplay:10.37,2013-06-07 14:30:00,
2013-06-07 09:40:00,66.8,59.0,28.65,North,10,2.0,7.0,76,0.00,FEW,,0.00,0.0,WeatherDisplay:10.37,2013-06-07 14:40:00,
2013-06-07 09:50:00,67.6,58.2,28.65,NE,36,3.0,8.0,72,0.00,FEW,,0.00,0.0,WeatherDisplay:10.37,2013-06-07 14:50:00,
2013-06-07 10:00:00,67.7,58.3,28.65,NE,45,3.0,12.0,72,0.00,FEW,,0.00,0.0,WeatherDisplay:10.37,2013-06-07 15:00:00,
2013-06-07 10:10:00,68.1,58.7,28.65,NNE,30,1.0,6.0,72,0.00,FEW,,0.00,0.0,WeatherDisplay:10.37,2013-06-07 15:10:00,
2013-06-07 10:20:00,68.8,58.6,28.65,NNE,28,3.0,7.0,70,0.00,FEW,,0.00,0.0,WeatherDisplay:10.37,2013-06-07 15:20:00,
2013-06-07 10:30:00,69.0,58.4,28.65,NNE,12,3.0,9.0,69,0.00,FEW,,0.00,0.0,WeatherDisplay:10.37,2013-06-07 15:30:00,
2013-06-07 10:40:00,69.2,58.2,28.65,North,7,2.0,7.0,68,0.00,FEW,,0.00,0.0,WeatherDisplay:10.37,2013-06-07 15:40:00,
2013-06-07 10:50:00,69.2,58.2,28.65,NNE,17,3.0,7.0,68,0.00,FEW,,0.00,0.0,WeatherDisplay:10.37,2013-06-07 15:50:00,
2013-06-07 11:00:00,69.2,59.0,28.65,NE,43,2.0,10.0,70,0.00,FEW,,0.00,0.0,WeatherDisplay:10.37,2013-06-07 16:00:00,
2013-06-07 11:10:00,69.0,57.1,28.65,NNE,26,3.0,7.0,66,0.00,FEW,,0.00,0.0,WeatherDisplay:10.37,2013-06-07 16:10:00,
2013-06-07 11:20:00,69.4,59.6,28.65,NNE,19,1.0,6.0,71,0.00,FEW,,0.00,0.0,WeatherDisplay:10.37,2013-06-07 16:20:00,
2013-06-07 11:30:00,70.1,58.2,28.65,NE,40,3.0,9.0,66,0.00,FEW,,0.00,0.0,WeatherDisplay:10.37,2013-06-07 16:30:00,
2013-06-07 11:40:00,70.1,58.6,28.65,NE,41,2.0,9.0,67,0.00,FEW,,0.00,0.0,WeatherDisplay:10.37,2013-06-07 16:40:00,
2013-06-07 11:50:00,70.2,57.0,28.65,NNE,21,2.0,12.0,63,0.00,FEW,,0.00,0.0,WeatherDisplay:10.37,2013-06-07 16:50:00,
2013-06-07 12:00:00,69.8,57.1,28.65,NNW,340,2.0,10.0,64,0.00,FEW,,0.00,0.0,WeatherDisplay:10.37,2013-06-07 17:00:00,
2013-06-07 12:10:00,70.2,55.2,28.65,NNE,30,3.0,7.0,59,0.00,FEW,,0.00,0.0,WeatherDisplay:10.37,2013-06-07 17:10:00,
2013-06-07 12:20:00,69.8,55.7,28.64,NE,40,6.0,12.0,61,0.00,FEW,,0.00,0.0,WeatherDisplay:10.37,2013-06-07 17:20:00,
2013-06-07 12:30:00,70.0,56.8,28.64,NNE,24,2.0,10.0,63,0.00,FEW,,0.00,0.0,WeatherDisplay:10.37,2013-06-07 17:30:00,
2013-06-07 12:40:00,71.0,57.3,28.64,NE,39,5.0,10.0,62,0.00,FEW,,0.00,0.0,WeatherDisplay:10.37,2013-06-07 17:40:00,
2013-06-07 12:50:00,71.2,57.1,28.63,NE,40,3.0,13.0,61,0.00,FEW,,0.00,0.0,WeatherDisplay:10.37,2013-06-07 17:50:00,
2013-06-07 13:00:00,71.1,58.3,28.63,NNE,33,1.0,12.0,64,0.00,FEW,,0.00,0.0,WeatherDisplay:10.37,2013-06-07 18:00:00,
2013-06-07 13:20:00,72.1,60.1,28.63,NE,56,0.0,5.0,66,0.00,FEW,,0.00,0.0,WeatherDisplay:10.37,2013-06-07 18:20:00,
2013-06-07 13:50:00,71.7,55.6,28.62,NE,48,3.0,12.0,57,0.00,FEW,,0.00,0.0,WeatherDisplay:10.37,2013-06-07 18:50:00,
2013-06-07 14:10:00,72.0,56.8,28.61,North,2,0.0,10.0,59,0.00,FEW,,0.00,0.0,WeatherDisplay:10.37,2013-06-07 19:10:00,
2013-06-07 14:20:00,71.5,56.9,28.61,North,6,3.0,8.0,60,0.00,FEW,,0.00,0.0,WeatherDisplay:10.37,2013-06-07 19:20:00,
2013-06-07 14:30:00,70.5,57.7,28.61,NE,40,5.0,16.0,64,0.00,FEW,,0.00,0.0,WeatherDisplay:10.37,2013-06-07 19:30:00,
2013-06-07 14:50:00,69.0,57.5,28.61,NE,42,1.0,8.0,67,0.00,FEW,,0.00,0.0,WeatherDisplay:10.37,2013-06-07 19:50:00,
2013-06-07 15:00:00,70.4,55.8,28.61,NE,39,1.0,7.0,60,0.00,FEW,,0.00,0.0,WeatherDisplay:10.37,2013-06-07 20:00:00,
2013-06-07 15:10:00,70.9,56.4,28.61,NE,48,2.0,6.0,60,0.00,FEW,,0.00,0.0,WeatherDisplay:10.37,2013-06-07 20:10:00,
2013-06-07 15:20:00,71.6,57.9,28.61,NE,53,3.0,7.0,62,0.00,FEW,,0.00,0.0,WeatherDisplay:10.37,2013-06-07 20:20:00,
2013-06-07 15:30:00,72.1,57.0,28.61,NE,45,1.0,10.0,59,0.00,FEW,,0.00,0.0,WeatherDisplay:10.37,2013-06-07 20:30:00,
2013-06-07 15:40:00,72.2,57.1,28.60,North,8,0.0,5.0,59,0.00,FEW,,0.00,0.0,WeatherDisplay:10.37,2013-06-07 20:40:00,
2013-06-07 15:50:00,72.6,57.9,28.60,NNW,340,1.0,7.0,60,0.00,FEW,,0.00,0.0,WeatherDisplay:10.37,2013-06-07 20:50:00,
2013-06-07 16:00:00,71.7,57.5,28.60,North,1,2.0,9.0,61,0.00,FEW,,0.00,0.0,WeatherDisplay:10.37,2013-06-07 21:00:00,
2013-06-07 16:10:00,71.4,57.2,28.60,NE,42,2.0,12.0,61,0.00,FEW,,0.00,0.0,WeatherDisplay:10.37,2013-06-07 21:10:00,
2013-06-07 16:30:00,72.8,57.2,28.59,NNE,13,2.0,6.0,58,0.00,FEW,,0.00,0.0,WeatherDisplay:10.37,2013-06-07 21:30:00,
2013-06-07 16:40:00,72.6,56.0,28.59,NW,307,2.0,7.0,56,0.00,FEW,,0.00,0.0,WeatherDisplay:10.37,2013-06-07 21:40:00,
2013-06-07 16:50:00,73.0,57.8,28.59,NW,325,5.0,10.0,59,0.00,FEW,,0.00,0.0,WeatherDisplay:10.37,2013-06-07 21:50:00,
2013-06-07 17:00:00,71.9,57.8,28.59,NE,48,2.0,10.0,61,0.00,FEW,,0.00,0.0,WeatherDisplay:10.37,2013-06-07 22:00:00,
2013-06-07 17:10:00,71.6,57.4,28.59,NNE,19,2.0,9.0,61,0.00,FEW,,0.00,0.0,WeatherDisplay:10.37,2013-06-07 22:10:00,
2013-06-07 17:20:00,72.8,58.1,28.59,NNE,31,3.0,10.0,60,0.00,FEW,,0.00,0.0,WeatherDisplay:10.37,2013-06-07 22:20:00,
2013-06-07 17:30:00,72.0,57.3,28.59,NNE,31,2.0,10.0,60,0.00,FEW,,0.00,0.0,WeatherDisplay:10.37,2013-06-07 22:30:00,
2013-06-07 17:40:00,71.0,57.3,28.59,NE,46,1.0,6.0,62,0.00,FEW,,0.00,0.0,WeatherDisplay:10.37,2013-06-07 22:40:00,
2013-06-07 17:50:00,71.3,57.2,28.59,NE,40,1.0,6.0,61,0.00,FEW,,0.00,0.0,WeatherDisplay:10.37,2013-06-07 22:50:00,
2013-06-07 18:00:00,71.4,57.3,28.58,NE,50,2.0,6.0,61,0.00,FEW,,0.00,0.0,WeatherDisplay:10.37,2013-06-07 23:00:00,
2013-06-07 18:10:00,72.4,55.3,28.58,NNE,26,1.0,9.0,55,0.00,FEW,,0.00,0.0,WeatherDisplay:10.37,2013-06-07 23:10:00,
2013-06-07 18:20:00,72.7,55.6,28.58,NE,35,3.0,7.0,55,0.00,FEW,,0.00,0.0,WeatherDisplay:10.37,2013-06-07 23:20:00,
2013-06-07 18:30:00,72.4,54.9,28.58,NNE,33,3.0,7.0,54,0.00,FEW,,0.00,0.0,WeatherDisplay:10.37,2013-06-07 23:30:00,
2013-06-07 18:40:00,72.2,55.1,28.58,NNW,328,0.0,6.0,55,0.00,FEW,,0.00,0.0,WeatherDisplay:10.37,2013-06-07 23:40:00,
2013-06-07 18:50:00,72.6,55.5,28.58,NNW,337,0.0,5.0,55,0.00,FEW,,0.00,0.0,WeatherDisplay:10.37,2013-06-07 23:50:00,
2013-06-07 19:00:00,72.0,53.9,28.58,North,350,1.0,5.0,53,0.00,FEW,,0.00,0.0,WeatherDisplay:10.37,2013-06-08 00:00:00,
2013-06-07 19:10:00,71.9,55.3,28.58,NNW,340,0.0,3.0,56,0.00,FEW,,0.00,0.0,WeatherDisplay:10.37,2013-06-08 00:10:00,
2013-06-07 19:30:00,71.4,54.4,28.58,North,356,2.0,5.0,55,0.00,FEW,,0.00,0.0,WeatherDisplay:10.37,2013-06-08 00:30:00,
2013-06-07 19:40:00,71.1,54.6,28.59,North,360,0.0,2.0,56,0.00,FEW,,0.00,0.0,WeatherDisplay:10.37,2013-06-08 00:40:00,
2013-06-07 19:50:00,70.8,55.3,28.59,North,360,0.0,1.0,58,0.00,FEW,,0.00,0.0,WeatherDisplay:10.37,2013-06-08 00:50:00,
2013-06-07 20:00:00,70.1,55.6,28.59,North,360,0.0,1.0,60,0.00,FEW,,0.00,0.0,WeatherDisplay:10.37,2013-06-08 01:00:00,
2013-06-07 20:10:00,68.2,55.1,28.59,North,360,0.0,0.0,63,0.00,FEW,,0.00,0.0,WeatherDisplay:10.37,2013-06-08 01:10:00,
2013-06-07 20:20:00,66.2,55.4,28.59,North,360,0.0,0.0,68,0.00,FEW,,0.00,0.0,WeatherDisplay:10.37,2013-06-08 01:20:00,
2013-06-07 20:30:00,64.9,54.9,28.60,North,360,0.0,1.0,70,0.00,FEW,,0.00,0.0,WeatherDisplay:10.37,2013-06-08 01:30:00,
2013-06-07 20:40:00,63.9,55.1,28.60,North,360,0.0,0.0,73,0.00,FEW,,0.00,0.0,WeatherDisplay:10.37,2013-06-08 01:40:00,
2013-06-07 20:50:00,62.9,54.5,28.60,North,360,0.0,0.0,74,0.00,FEW,,0.00,0.0,WeatherDisplay:10.37,2013-06-08 01:50:00,
2013-06-07 21:00:00,62.1,54.1,28.60,North,360,0.0,0.0,75,0.00,FEW,,0.00,0.0,WeatherDisplay:10.37,2013-06-08 02:00:00,
2013-06-07 21:10:00,61.4,53.8,28.60,North,360,0.0,0.0,76,0.00,FEW,,0.00,0.0,WeatherDisplay:10.37,2013-06-08 02:10:00,
2013-06-07 21:40:00,59.3,53.5,28.61,North,360,0.0,0.0,81,0.00,FEW,,0.00,0.0,WeatherDisplay:10.37,2013-06-08 02:40:00,
2013-06-07 21:50:00,58.9,53.4,28.61,North,360,0.0,0.0,82,0.00,FEW,,0.00,0.0,WeatherDisplay:10.37,2013-06-08 02:50:00,
2013-06-07 22:00:00,58.5,53.0,28.61,North,360,0.0,0.0,82,0.00,FEW,,0.00,0.0,WeatherDisplay:10.37,2013-06-08 03:00:00,
2013-06-07 22:10:00,58.1,53.0,28.61,North,360,0.0,0.0,83,0.00,FEW,,0.00,0.0,WeatherDisplay:10.37,2013-06-08 03:10:00,
2013-06-07 22:20:00,57.7,53.2,28.61,North,360,0.0,0.0,85,0.00,FEW,,0.00,0.0,WeatherDisplay:10.37,2013-06-08 03:20:00,
2013-06-07 22:30:00,57.3,53.1,28.62,North,360,0.0,0.0,86,0.00,FEW,,0.00,0.0,WeatherDisplay:10.37,2013-06-08 03:30:00,
2013-06-07 22:40:00,57.4,53.2,28.62,North,360,0.0,0.0,86,0.00,FEW,,0.00,0.0,WeatherDisplay:10.37,2013-06-08 03:40:00,
2013-06-07 22:50:00,57.2,53.4,28.63,North,360,0.0,0.0,87,0.00,FEW,,0.00,0.0,WeatherDisplay:10.37,2013-06-08 03:50:00,
2013-06-07 23:00:00,56.9,53.3,28.63,North,360,0.0,0.0,88,0.00,FEW,,0.00,0.0,WeatherDisplay:10.37,2013-06-08 04:00:00,
2013-06-07 23:10:00,56.4,52.9,28.62,North,360,0.0,0.0,88,0.00,FEW,,0.00,0.0,WeatherDisplay:10.37,2013-06-08 04:10:00,
2013-06-07 23:20:00,55.9,52.7,28.63,North,360,0.0,0.0,89,0.00,FEW,,0.00,0.0,WeatherDisplay:10.37,2013-06-08 04:20:00,
2013-06-07 23:30:00,55.5,52.7,28.62,North,360,0.0,0.0,90,0.00,FEW,,0.00,0.0,WeatherDisplay:10.37,2013-06-08 04:30:00,
2013-06-07 23:40:00,55.3,52.4,28.62,North,360,0.0,0.0,90,0.00,FEW,,0.00,0.0,WeatherDisplay:10.37,2013-06-08 04:40:00,
2013-06-07 23:50:00,54.9,52.3,28.62,North,360,0.0,0.0,91,0.00,FEW,,0.00,0.0,WeatherDisplay:10.37,2013-06-08 04:50:00,